{"data":{"norad_id":59331,"epoch":"2026-05-24T23:23:02.314176Z","epoch_age_seconds":76853,"freshness":"FRESH","line1":"1 59331U 24057M   26144.97433234  .00000605  00000+0  31515-4 0  9990","line2":"2 59331  43.0035 116.4449 0001440 285.8868  74.1825 15.27575274121502","mean_motion":15.27575274,"eccentricity":0.000144,"inclination_deg":43.0035,"raan_deg":116.4449,"arg_perigee_deg":285.8868,"mean_anomaly_deg":74.1825,"bstar":3.1515e-5,"rev_number":12150,"period_min":94.267040355355,"perigee_km":482.07523458468,"apogee_km":484.05126025593,"semimajor_km":6861.2002474203,"source":"CELESTRAK","updated_at":"2026-05-25T13:38:18.904940Z"}}